Flag for U.S.A. Weather past 2 weeks in Winder, Georgia, U.S.A.

Now
N/A

Clear.


Feels Like: N/A
Forecast: 57 / 76 °F
Wind: 5 mph from East

Location: Winder-Barrow Airport

Current Time: Sep 24, 2014 at 1:25:55 AM

Latest Report: Sep 24, 2014 at 12:35 AM


Visibility: 10 mi

Pressure: 30.31 "Hg

Humidity: N/A

Dew point: N/A

Location of WinderLocation

Historic Weather in Winder — Graph

°F

Winder temperature yesterday

Maximum temperature yesterday: 75 °F (at 12:55 PM)
Minimum temperature yesterday: 62 °F (at 3:15 AM)
Average temperature yesterday: 70 °F

Past Weeks' High & Low Weather Summary

 TemperatureHumidityPressure
High92 °F (Sep 12, 4:15 PM)100% (Sep 11, 4:15 AM)30.27 "Hg (Sep 11, 4:15 AM)
Low62 °F (Sep 23, 3:15 AM)46% (Sep 17, 3:35 PM)29.92 "Hg (Sep 17, 4:15 PM)
Average75 °F84%30.10 "Hg
* Reported Sep 8 7:15 PM — Sep 23 7:20 PM, Winder, Weather by CustomWeather, © 2014

Note: Actual official high and low records may vary slightly from our data, if they occured in-between our weather recording intervals... More about our weather records

Advertising

Winder weather history for previous 24 hours

 ConditionsComfort  
Time TempWeatherWind HumidityBarometerVisibility
7:20 PM
Sep 23
69 °FSunny.8 mph74%30.24 "Hg10 mi
6:10 PM72 °FSunny.6 mph68%30.23 "Hg10 mi
5:50 PM72 °FSunny.3 mph67%30.24 "Hg10 mi
5:35 PM73 °FSunny.5 mph67%30.24 "Hg10 mi
5:15 PM73 °FScattered clouds.9 mph66%30.23 "Hg10 mi
4:55 PM72 °FBroken clouds.9 mph67%30.24 "Hg10 mi
4:30 PM73 °FPartly sunny.10 mph66%30.24 "Hg10 mi
4:15 PM73 °FScattered clouds.10 mph65%30.24 "Hg10 mi
3:55 PM74 °FScattered clouds.12 mph62%30.24 "Hg10 mi
3:35 PM72 °FOvercast.6 mph64%30.25 "Hg10 mi
3:15 PM73 °FOvercast.9 mph63%30.25 "Hg10 mi
2:55 PM73 °FMore clouds than sun.8 mph64%30.25 "Hg10 mi
2:35 PM74 °FOvercast.5 mph61%30.26 "Hg10 mi
2:15 PM73 °FOvercast.8 mph63%30.26 "Hg10 mi
1:55 PM73 °FOvercast.9 mph63%30.26 "Hg10 mi
1:35 PM73 °FMostly cloudy.No wind63%30.26 "Hg10 mi
1:15 PM73 °FMostly cloudy.5 mph62%30.26 "Hg10 mi
12:55 PM75 °FPartly sunny.8 mph59%30.26 "Hg10 mi
12:35 PM74 °FPartly sunny.5 mph60%30.26 "Hg10 mi
12:15 PM73 °FPartly sunny.8 mph62%30.26 "Hg10 mi
11:55 AM73 °FPartly sunny.9 mph63%30.26 "Hg10 mi
11:35 AMN/AOvercast.7 mphN/A30.27 "Hg10 mi
10:50 AM70 °FScattered clouds.7 mph64%30.26 "Hg10 mi
10:35 AM69 °FScattered clouds.3 mph66%30.26 "Hg10 mi
10:15 AM69 °FScattered clouds.6 mph66%30.26 "Hg10 mi
3:30 AM62 °FClear.3 mph98%30.17 "Hg10 mi
3:15 AM62 °FClear.3 mph97%30.17 "Hg10 mi
2:55 AM63 °FClear.3 mph94%30.17 "Hg10 mi
2:35 AM63 °FClear.3 mph94%30.17 "Hg10 mi
2:15 AM63 °FClear.5 mph91%30.16 "Hg10 mi
1:55 AM63 °FClear.5 mph90%30.17 "Hg10 mi
1:35 AM64 °FClear.3 mph89%30.17 "Hg10 mi
1:15 AM63 °FClear.No wind89%30.16 "Hg10 mi
Weather by CustomWeather, © 2014

See weather overviewHow to use our weather pages